Date String (YYYY-MM-DD hh:mm:ss) UTC,Instrument flags,absolute air pressure of the measurement (hPa),sample flow rate (lpm),inlet stack bypass flow (lpm),air temperature of the measurement (°C),ambient temperature measured by the external sensor (°C),aerosol sample conditioner tube jacket temperature (°C),OPC LED temperature (°C),internal box temperature (°C),relative humidity of the measurement (%),span deviation,mass concentration of particles derived from Lorenz-Mie calculation of OPC scattering (μg/m³),mass concentration of particles derived from Lorenz-Mie calculation of OPC scattering (μg/m³),mass concentration of particles derived from Lorenz-Mie calculation of OPC scattering (μg/m³)
DateTimeUTC,F1_M11,P_M11,Q1_M11,Q2_M11,T1_M11,T2_M11,T3_M11,T4_M11,T5_M11,U1_M11,ZSPAN_M11,X2_M11,X0_M11,X1_M11
2023-12-18 22:00:00,SystemResetWarning,0828.4,5.01,000.00,023.2,022.4,000.0,031.4,024.6,11.5,0000.0,0005.46,0016.92,0004.32
2023-12-18 22:01:00,SystemResetWarning,0828.3,5.00,000.00,023.2,022.4,000.0,031.4,024.6,11.6,0000.0,0005.46,0017.43,0004.34
2023-12-18 22:02:00,SystemResetWarning,0828.3,4.99,000.00,023.2,022.4,000.0,031.4,024.6,11.9,0000.0,0005.51,0017.42,0004.36
2023-12-18 22:03:00,SystemResetWarning,0828.3,5.00,000.00,023.2,022.4,000.0,031.4,024.6,11.7,0000.0,0005.51,0017.14,0004.39
2023-12-18 22:04:00,SystemResetWarning,0828.3,4.99,000.00,023.2,022.4,000.0,031.4,024.6,11.6,0000.0,0005.50,0017.07,0004.39
2023-12-18 22:05:00,SystemResetWarning,0828.3,5.01,000.00,023.2,022.4,000.0,031.4,024.6,11.9,0000.0,0005.50,0017.06,0004.40
2023-12-18 22:06:00,SystemResetWarning,0828.3,5.01,000.00,023.2,022.4,000.0,031.4,024.6,11.8,0000.0,0005.49,0017.03,0004.41
2023-12-18 22:07:00,SystemResetWarning,0828.3,5.00,000.00,023.2,022.4,000.0,031.5,024.6,11.6,0000.0,0005.48,0017.10,0004.40
2023-12-18 22:08:00,SystemResetWarning,0828.3,4.98,000.00,023.2,022.4,000.0,031.5,024.6,11.6,0000.0,0005.44,0014.64,0004.36
2023-12-18 22:09:00,SystemResetWarning,0828.3,5.00,000.00,023.2,022.4,000.0,031.5,024.6,11.5,0000.0,0005.39,0013.97,0004.33
2023-12-18 22:10:00,SystemResetWarning,0828.4,5.02,000.00,023.2,022.4,000.0,031.5,024.6,11.5,0000.0,0005.32,0013.54,0004.29
2023-12-18 22:11:00,SystemResetWarning,0828.4,5.00,000.00,023.2,022.4,000.0,031.5,024.6,11.4,0000.0,0005.28,0012.94,0004.24
2023-12-18 22:12:00,SystemResetWarning,0828.4,4.99,000.00,023.2,022.4,000.0,031.5,024.6,11.4,0000.0,0005.24,0012.15,0004.22
2023-12-18 22:13:00,SystemResetWarning,0828.4,4.99,000.00,023.2,022.4,000.0,031.5,024.6,11.5,0000.0,0005.15,0012.02,0004.19
2023-12-18 22:14:00,SystemResetWarning,0828.3,5.00,000.00,023.2,022.4,000.0,031.5,024.6,11.5,0000.0,0005.12,0012.08,0004.16
2023-12-18 22:15:00,SystemResetWarning,0828.3,5.01,000.00,023.2,022.4,000.0,031.5,024.6,11.4,0000.0,0005.09,0012.35,0004.16
2023-12-18 22:16:00,SystemResetWarning,0828.4,5.00,000.00,023.2,022.4,000.0,031.5,024.6,11.4,0000.0,0005.12,0013.06,0004.16
2023-12-18 22:17:00,SystemResetWarning,0828.2,5.01,000.00,023.2,022.4,000.0,031.5,024.6,11.3,0000.0,0005.16,0014.53,0004.18
2023-12-18 22:18:00,SystemResetWarning,0828.1,5.01,000.00,023.2,022.4,000.0,031.5,024.6,11.3,0000.0,0005.15,0014.46,0004.20
2023-12-18 22:19:00,SystemResetWarning,0828.2,4.99,000.00,023.2,022.4,000.0,031.5,024.7,11.4,0000.0,0005.12,0014.58,0004.18
2023-12-18 22:20:00,SystemResetWarning,0828.2,4.98,000.00,023.2,022.4,000.0,031.5,024.7,11.4,0000.0,0005.06,0015.09,0004.16
2023-12-18 22:21:00,SystemResetWarning,0828.1,5.01,000.00,023.2,022.4,000.0,031.5,024.7,11.4,0000.0,0005.04,0014.30,0004.14
2023-12-18 22:22:00,SystemResetWarning,0828.2,5.02,000.00,023.2,022.4,000.0,031.5,024.7,11.4,0000.0,0005.05,0013.98,0004.15
2023-12-18 22:23:00,SystemResetWarning,0828.2,4.99,000.00,023.2,022.5,000.0,031.5,024.7,11.4,0000.0,0005.05,0014.12,0004.14
2023-12-18 22:24:00,SystemResetWarning,0828.2,4.99,000.00,023.2,022.5,000.0,031.5,024.7,11.4,0000.0,0005.05,0014.78,0004.14
2023-12-18 22:25:00,SystemResetWarning,0828.2,5.00,000.00,023.2,022.5,000.0,031.5,024.7,11.4,0000.0,0005.04,0014.77,0004.14
2023-12-18 22:26:00,SystemResetWarning,0828.2,5.01,000.00,023.3,022.5,000.0,031.5,024.7,11.5,0000.0,0005.10,0014.91,0004.16
2023-12-18 22:27:00,SystemResetWarning,0828.2,5.01,000.00,023.3,022.5,000.0,031.5,024.7,11.5,0000.0,0005.13,0014.83,0004.19
2023-12-18 22:28:00,SystemResetWarning,0828.2,5.00,000.00,023.3,022.5,000.0,031.5,024.7,11.5,0000.0,0005.18,0013.57,0004.22
2023-12-18 22:29:00,SystemResetWarning,0828.2,4.99,000.00,023.3,022.5,000.0,031.5,024.7,11.5,0000.0,0005.29,0013.60,0004.27
2023-12-18 22:30:00,SystemResetWarning,0828.2,5.00,000.00,023.3,022.5,000.0,031.5,024.7,11.5,0000.0,0005.46,0014.43,0004.38
2023-12-18 22:31:00,SystemResetWarning,0828.1,5.02,000.00,023.3,022.5,000.0,031.5,024.7,11.5,0000.0,0005.66,0014.35,0004.51
2023-12-18 22:32:00,SystemResetWarning,0828.1,5.00,000.00,023.3,022.5,000.0,031.5,024.7,11.5,0000.0,0005.89,0016.26,0004.64
2023-12-18 22:33:00,SystemResetWarning,0828.1,4.99,000.00,023.2,022.5,000.0,031.5,024.6,11.5,0000.0,0006.12,0017.70,0004.77
2023-12-18 22:34:00,SystemResetWarning,0828.0,4.99,000.00,023.2,022.5,000.0,031.5,024.5,11.6,0000.0,0006.25,0017.95,0004.86
2023-12-18 22:35:00,SystemResetWarning,0828.1,5.01,000.00,023.2,022.5,000.0,031.6,024.6,11.6,0000.0,0006.40,0017.99,0004.95
2023-12-18 22:36:00,SystemResetWarning,0828.1,5.01,000.00,023.2,022.5,000.0,031.5,024.6,11.6,0000.0,0006.58,0018.93,0005.04
2023-12-18 22:37:00,SystemResetWarning,0828.1,5.00,000.00,023.2,022.5,000.0,031.5,024.6,11.4,0000.0,0006.64,0019.51,0005.11
2023-12-18 22:38:00,SystemResetWarning,0828.2,4.99,000.00,023.2,022.5,000.0,031.5,024.6,11.5,0000.0,0006.70,0019.30,0005.16
2023-12-18 22:39:00,SystemResetWarning,0828.1,4.99,000.00,023.2,022.5,000.0,031.5,024.6,12.0,0000.0,0006.75,0019.44,0005.19
2023-12-18 22:40:00,SystemResetWarning,0828.1,5.01,000.00,023.2,022.5,000.0,031.5,024.6,11.7,0000.0,0006.78,0019.59,0005.21
2023-12-18 22:41:00,SystemResetWarning,0828.1,5.01,000.00,023.2,022.5,000.0,031.5,024.6,11.5,0000.0,0006.81,0019.64,0005.23
2023-12-18 22:42:00,SystemResetWarning,0828.1,5.01,000.00,023.2,022.5,000.0,031.5,024.6,11.4,0000.0,0006.81,0020.61,0005.23
2023-12-18 22:43:00,SystemResetWarning,0828.1,4.99,000.00,023.2,022.5,000.0,031.5,024.6,11.5,0000.0,0006.80,0019.57,0005.21
2023-12-18 22:44:00,SystemResetWarning,0828.1,5.00,000.00,023.2,022.4,000.0,031.5,024.6,11.5,0000.0,0006.70,0018.55,0005.16
2023-12-18 22:45:00,SystemResetWarning,0828.2,5.00,000.00,023.2,022.4,000.0,031.5,024.6,11.7,0000.0,0006.63,0018.26,0005.11
2023-12-18 22:46:00,SystemResetWarning,0828.2,4.99,000.00,023.2,022.4,000.0,031.5,024.6,11.9,0000.0,0006.56,0018.95,0005.04
2023-12-18 22:47:00,SystemResetWarning,0828.2,5.00,000.00,023.2,022.5,000.0,031.5,024.6,12.0,0000.0,0006.49,0018.69,0004.98
2023-12-18 22:48:00,SystemResetWarning,0828.2,4.99,000.00,023.2,022.5,000.0,031.5,024.6,12.4,0000.0,0006.36,0017.79,0004.90
2023-12-18 22:49:00,SystemResetWarning,0828.2,5.00,000.00,023.2,022.5,000.0,031.5,024.6,12.3,0000.0,0006.31,0018.22,0004.82
2023-12-18 22:50:00,SystemResetWarning,0828.1,5.00,000.00,023.2,022.5,000.0,031.5,024.6,11.9,0000.0,0006.19,0017.97,0004.72
2023-12-18 22:51:00,SystemResetWarning,0828.1,5.01,000.00,023.3,022.5,000.0,031.5,024.6,11.8,0000.0,0006.02,0017.48,0004.60
2023-12-18 22:52:00,SystemResetWarning,0828.1,5.00,000.00,023.3,022.5,000.0,031.5,024.6,11.8,0000.0,0005.84,0016.56,0004.49
2023-12-18 22:53:00,SystemResetWarning,0828.0,5.00,000.00,023.2,022.5,000.0,031.5,024.6,11.8,0000.0,0005.76,0015.72,0004.39
2023-12-18 22:54:00,SystemResetWarning,0827.9,5.00,000.00,023.2,022.5,000.0,031.5,024.6,11.9,0000.0,0005.60,0016.00,0004.28
2023-12-18 22:55:00,SystemResetWarning,0827.8,5.00,000.00,023.2,022.5,000.0,031.5,024.6,11.9,0000.0,0005.47,0015.77,0004.21
2023-12-18 22:56:00,SystemResetWarning,0827.8,5.00,000.00,023.2,022.5,000.0,031.5,024.6,12.2,0000.0,0005.41,0015.52,0004.15
2023-12-18 22:57:00,SystemResetWarning,0827.8,5.00,000.00,023.2,022.5,000.0,031.5,024.6,12.0,0000.0,0005.38,0014.98,0004.14
2023-12-18 22:58:00,SystemResetWarning,0827.8,5.00,000.00,023.2,022.5,000.0,031.5,024.6,12.0,0000.0,0005.34,0015.12,0004.12
2023-12-18 22:59:00,SystemResetWarning,0828.0,5.00,000.00,023.3,022.5,000.0,031.5,024.7,12.0,0000.0,0005.33,0015.60,0004.10
